Location: Unspecified
(55.9500°N, 0.0000°E)
Time: 14:19:14
(UTC+00:00)

ISS - Visible Passes

Search period start: 19 May 2019 00:00
Search period end: 29 May 2019 00:00
Orbit: 408 x 410 km, 51.6° (Epoch: 19 May)

Date Brightness Start Highest point End Pass type
(mag) Time Alt. Az. Time Alt. Az. Time Alt. Az.
19 May -3.4 00:04:50 10° WSW 00:07:58 39° S 00:11:05 10° ESE visible
19 May -2.7 01:41:19 10° WSW 01:44:05 24° SSW 01:46:50 10° SE visible
19 May -2.6 21:38:25 10° SSW 21:41:03 22° SSE 21:43:43 10° ESE visible
19 May -3.4 23:14:03 10° WSW 23:17:09 38° S 23:20:16 10° ESE visible
20 May -3.0 00:50:22 10° WSW 00:53:20 30° SSW 00:56:16 10° SE visible
20 May -1.9 02:27:50 10° WSW 02:29:10 12° SW 02:30:30 10° SSW visible
20 May -3.2 22:23:17 10° WSW 22:26:20 35° S 22:29:25 10° ESE visible
20 May -3.2 23:59:29 10° WSW 00:02:32 35° S 00:04:28 18° SE visible
21 May -1.7 01:36:19 10° WSW 01:37:04 13° WSW 01:37:04 13° WSW visible
21 May -3.0 21:32:34 10° SW 21:35:32 31° SSE 21:38:30 10° ESE visible
21 May -3.3 23:08:36 10° WSW 23:11:43 38° S 23:14:11 14° ESE visible
22 May -2.2 00:45:10 10° WSW 00:46:51 19° SW 00:46:51 19° SW visible
22 May -3.3 22:17:45 10° WSW 22:20:52 39° S 22:23:59 10° ESE visible
22 May -2.8 23:54:09 10° WSW 23:57:01 27° SSW 23:57:11 27° SSW visible
23 May -3.2 21:26:56 10° WSW 21:30:01 37° S 21:33:07 10° ESE visible
23 May -3.1 23:03:11 10° WSW 23:06:12 32° SSW 23:07:39 22° SSE visible
24 May -1.3 00:40:17 10° WSW 00:40:21 10° WSW 00:40:21 10° WSW visible
24 May -3.2 22:12:15 10° WSW 22:15:21 36° S 22:18:11 12° ESE visible
24 May -2.1 23:48:57 10° WSW 23:50:54 18° SW 23:50:54 18° SW visible
25 May -3.2 21:21:22 10° WSW 21:24:29 39° S 21:27:35 10° ESE visible
25 May -2.6 22:57:50 10° WSW 23:00:35 24° SSW 23:01:28 21° S visible
26 May -2.8 22:06:48 10° WSW 22:09:45 30° SSW 22:12:04 14° SE visible
26 May -1.4 23:44:18 10° WSW 23:44:47 11° SW 23:44:47 11° SW visible
27 May -2.0 22:52:41 10° WSW 22:54:50 16° SSW 22:55:24 16° SSW visible
28 May -2.3 22:01:26 10° WSW 22:04:02 21° SSW 22:06:03 13° SSE visible
